Location: Unspecified
(0.0000°N, 0.0000°E)
Time: 08:09:26
(UTC+00:00)

Hubble Space Telescope - Pass Details

Date: 12 January 2019
Orbit: 537 x 540 km, 28.5° (Epoch: 18 March)

Event Time Altitude Azimuth Distance (km) Brightness Sun altitude
Exits shadow 05:11:11 21° 295° (WNW) 1,230 1.9 -13.2°
Maximum altitude 05:12:44 27° 331° (NNW) 1,052 1.8 -12.9°
Drops below altitude 10° 05:16:15 10° 29° (NNE) 1,781 3.5 -12.0°
Sets 05:18:46 0° 42° (NE) 2,671 4.6 -11.5°
